パンスターズ彗星

C/2017 E3 ( PanSTARRS )

English version
Home page
Updated on June 15, 2021

---------------------------------------------------------------------

・ プロフィール

発見日 2017年3月7日
発見光度 19.2等
発見者 Pan-STARRS 1 telescope (Haleakala)

・ 写真集

・ 軌道要素

Epoch 2017 June 16.0 TT = JDT 2457920.5                                         
T 2017 May 31.58035 TT                                  Rudenko                 
q   5.9152836            (2000.0)            P               Q                  
z  -0.0008426      Peri.  333.66438     -0.77474507     -0.14230919             
 +/-0.0000007      Node   220.75857     -0.26824035     -0.80833284             
e   1.0049841      Incl.   70.66503     -0.57255322     +0.57126712             
From 518 observations 2013 Dec. 14-2020 June 20, mean residual 0".8.            

・ 光度変化

        m1 =  5.5 + 5 logΔ + 10.0 log r           [ ,0]  (              〜2017年 5月31日)
        m1 = -2.7 + 5 logΔ + 20   log r(t - 280)  [0, ]  (2017年 5月31日〜              )

---------------------------------------------------------------------

軌道要素はM.P.E.C. 2020-S188に掲載されたものです。
光度グラフはComet for Windowsで作成したものです。

---------------------------------------------------------------------

Copyright(C) Seiichi Yoshida (comet@aerith.net). All rights reserved.